Date,SPY,VEU,BND
2010-01-01,0.3765525560309013,0.5816371618849152,0.05834509058052517
2010-02-01,0.4862182632112417,0.6418262088144571,0.07825935474826173
2010-03-01,0.4147187383640607,0.5101898546472172,0.070056297304814
2010-04-01,0.3652171911333333,0.423433237699971,0.06273547033003757
2010-05-01,0.3097766483182312,0.214252873785614,0.06692825155977156
2010-06-01,0.2064978665499286,0.1047657308964698,0.0723178048554658
2010-07-01,0.06464451050292541,-0.01455654051826816,0.0738153836204738
2010-08-01,0.09684363710880373,0.06051409876296976,0.07222981086376778
2010-09-01,0.01163737631715578,-0.03090664712786373,0.07810592924408577
2010-10-01,0.1238395050513446,0.1068893130404893,0.07509610869121586
2010-11-01,0.09906398805012873,0.09355965507126318,0.06464326129838693
2010-12-01,0.07846363993826566,0.03416630601368431,0.07293675460432603
2011-01-01,0.1939525233213097,0.1864916213741603,0.04851091888157999
2011-02-01,0.1848117398191074,0.1804286109993221,0.04602509984071301
2011-03-01,0.1556158466294499,0.1364014005006782,0.05142413613262664
2011-04-01,0.1381472000785009,0.1541291585127198,0.03875937826719822
2011-05-01,0.2721916495019918,0.3660056746729494,0.0422150320041117
2011-06-01,0.3265619827774662,0.3405903534808328,0.03943329170606824
2011-07-01,0.2208014470932911,0.1971271735424482,0.02668680885481045
2011-08-01,0.2527277505526615,0.2103365960906933,0.02737943421227573
2011-09-01,0.08655308074098644,0.00165138667892073,0.04447307431319092
2011-10-01,-0.0260823261726979,-0.158846091072303,0.04807353535256209
2011-11-01,0.08021799545002128,-0.02204109204720128,0.05645176012700603
2011-12-01,0.008413349656588132,-0.118793082991594,0.06670575520276811
2012-01-01,-0.004251133796266959,-0.147057977082805,0.07835559959515725
2012-02-01,0.006947568750538702,-0.1128861838970224,0.08202360334490999
2012-03-01,0.05052805954858641,-0.06369336650563728,0.08405796983361036
2012-04-01,0.05379793079729689,-0.1200800511126116,0.06299423373757063
2012-05-01,0.0586349599621383,-0.1076903462327944,0.06218603957764834
2012-06-01,0.01213244248336709,-0.2006861522670195,0.07612341174013393
2012-07-01,0.07470475980210001,-0.1278741716298185,0.05959765690735175
2012-08-01,0.1506774196560834,-0.04249631864857495,0.05514397548371242
2012-09-01,0.26749519222551,0.1298182108619177,0.04986438263216741
2012-10-01,0.1717356086947586,0.04864974070292116,0.05058591838302795
2012-11-01,0.1551065249977481,0.08459218679339164,0.05015109495110059
2012-12-01,0.1496323035842533,0.131713489559141,0.03851200479245809
2013-01-01,0.1084971396977821,0.1126786763513159,0.02291991851553399
2013-02-01,0.1167678116034845,0.08220535742756696,0.01544746500199379
2013-03-01,0.09577244698207865,0.07684804265525025,0.02609492721575268
2013-04-01,0.1450237659744431,0.1035235627855309,0.01569763394425516
2013-05-01,0.2415865822413201,0.2922631149497781,0.01653922129372853
2013-06-01,0.2213376353571352,0.1730119590819537,-0.003699214256830063
2013-07-01,0.1909505743014817,0.1251858625991824,-0.03203682162280663
2013-08-01,0.2218836162332358,0.147732349182581,-0.02991878466919562
2013-09-01,0.1559325398941735,0.08706493541655602,-0.03998515170521721
2013-10-01,0.214617995468301,0.1605333604007722,-0.02830699602558773
2013-11-01,0.2637105336008472,0.1779925116377532,-0.02055312097899431
2013-12-01,0.2896421665456794,0.1250233329297679,-0.01480087225168636
2014-01-01,0.258647721809145,0.1145026137228911,-0.01427063547274554
2014-02-01,0.1989842557168009,0.06468140081279827,-0.00433259581364831
2014-03-01,0.2076993158216554,0.1176442788409495,-0.0004461228357570679
2014-04-01,0.1947637555409851,0.08227066292942564,-0.0121714455576154
2014-05-01,0.1753196256229266,0.1357324059699192,0.01530848215307867
2014-06-01,0.2188599920767011,0.2008746382594422,0.04318984954068172
2014-07-01,0.1828953417445818,0.1660911898018083,0.04011086298969935
2014-08-01,0.2030835118063947,0.172212574218872,0.04620023098945869
2014-09-01,0.2121991060430333,0.100632643839011,0.04648380970245514
2014-10-01,0.1425666272419734,0.01320242483737477,0.03165805089416351
2014-11-01,0.1358120148144708,0.01183570257239519,0.04218123864369572
2014-12-01,0.137523021885338,-0.006041017177089048,0.05757659893644851
2015-01-01,0.1760931342226686,0.01340747116684771,0.04203607088370709
2015-02-01,0.09156324912559866,-0.0408004150288015,0.06209695631368595
2015-03-01,0.1434285372846615,0.01055429083466919,0.04999968666871202
2015-04-01,0.1177008828863053,-0.01817495792247992,0.04731901882294687
2015-05-01,0.1030930638794902,0.008998398854751066,0.03305273607955561
2015-06-01,0.09467534621028806,-0.01789019727870123,0.02705826911348908
2015-07-01,0.0870475369312329,-0.0312142343455929,0.01846496924177043
2015-08-01,0.06940063776925953,-0.04366052588217373,0.01582440331513602
2015-09-01,0.01826890840235929,-0.07252705515248259,0.01914843165323754
2015-10-01,-0.03054479625411877,-0.1117229013521864,0.02002758833987239
2015-11-01,0.02379138789293767,-0.04925418494368394,0.01191724658292581
2015-12-01,0.03014640710304084,-0.02319270171795973,0.007365558771605052
2016-01-01,0.04325372528870997,-0.04758279150185074,-0.01801461769033152
2016-02-01,-0.06143769720620296,-0.1505752714504964,0.006937993504239737
2016-03-01,-0.04724946679558761,-0.1594184679291486,0.01000145952336662
2016-04-01,0.006936015661422212,-0.1308277211787868,0.02222683062620745
2016-05-01,-0.001926976414555082,-0.1031852148415662,0.03147031346391937
2016-06-01,0.03609721164473756,-0.08459317234321462,0.04299632728801628
2016-07-01,0.01673138936651353,-0.08867018951294559,0.05478924467249047
2016-08-01,0.1222121438793091,0.0298101509288804,0.06372584686405003
2016-09-01,0.1529753169729648,0.08051874769317835,0.05187294702265643
2016-10-01,0.06265274919562613,0.0286982716760662,0.05276618825051349
2016-11-01,0.04042690815006478,0.02478213644486971,0.0469924061689897
2016-12-01,0.09772612907528622,0.02888772108787507,0.02184362479689628
2017-01-01,0.178660497510573,0.1110155821778154,0.01304785966220434
2017-02-01,0.2007440356550014,0.1859756665191401,0.006364878931551354
2017-03-01,0.1692709528600851,0.1088582014070489,0.003705215744830959
2017-04-01,0.1661365464932529,0.1184476138674317,-0.0007184547182395029
2017-05-01,0.1580117817887456,0.1509745164686604,0.007308857304681338
2017-06-01,0.1702871712202612,0.1948468033958943,-0.005621539442617118
2017-07-01,0.136305030533276,0.1519620495213529,-0.01103434345584353
2017-08-01,0.1582739891631444,0.1826674227216083,-0.001847976184161104
2017-09-01,0.1615863866645388,0.171828200829427,0.007660845542291295
2017-10-01,0.2058982198180648,0.213943498334016,0.01244974177744362
2017-11-01,0.1904592778047804,0.2645651206125672,0.03891860174290085
2017-12-01,0.2024702943560839,0.2483768579046486,0.03439807893333624
2018-01-01,0.1956575676737284,0.2233161834425077,0.03806602763537437
2018-02-01,0.2152939186743963,0.2769689678341707,0.01893100977107487
2018-03-01,0.1696429358698559,0.1740634740106413,0.008770538640976877
2018-04-01,0.1264018195775596,0.1449771053631292,0.007675104198434646
2018-05-01,0.1164666401131471,0.11740906476272,-0.007965409390145783
2018-06-01,0.1363622898463279,0.08962303563788843,-0.001711289364503599
2018-07-01,0.1198792015715184,0.03164028093972271,-0.005916294147703116
2018-08-01,0.1579882894836544,0.0547611845978031,-0.01678161793846189
2018-09-01,0.1713491006941061,0.01145181530153971,-0.005544419484582175
2018-10-01,0.1511867268117106,-0.003516474732358055,-0.01070716761814638
2018-11-01,0.03985102107678307,-0.09196630944636541,-0.01819075920079549
2018-12-01,0.04644882837674946,-0.0971709313712128,-0.01725994355928173
2019-01-01,-0.09660468446785975,-0.1881078520408831,0.01371152673173648
2019-02-01,0.01254273148831753,-0.0777016113387593,0.03570666756353935
2019-03-01,0.07482661577214689,-0.05852481831354062,0.02771651954602761
2019-04-01,0.08865508972037772,-0.05445406299400934,0.0566550776492809
2019-05-01,0.1062380307613287,-0.00771130758087013,0.0492369147895575
2019-06-01,0.02976992784654287,-0.04240059054456891,0.06638874072672674
2019-07-01,0.06208157689554339,-0.01453260815003643,0.08008157860658249
2019-08-01,0.0447897718509942,-0.00909184760482129,0.07451057000828265
2019-09-01,0.0212248440546301,-0.03752248557076832,0.1103263467166213
2019-10-01,0.1183806644093792,0.07913171629663185,0.1136260277435694
2019-11-01,0.1222838397430523,0.1001928008445221,0.1100263868827962
2019-12-01,0.2751874448657365,0.1695355992368799,0.08915157064944879
2020-01-01,0.2149621486560747,0.1325532587439704,0.07637961580046371
2020-02-01,0.1763396959858528,0.0764300233449664,0.09867791036193885
2020-03-01,0.06395606680550525,-0.004685289871497966,0.09575361488780731
2020-04-01,-0.1054466643127818,-0.1787115314065715,0.0803658230140245
2020-05-01,0.07681677694911593,-0.0713598043143161,0.09026718881048335
2020-06-01,0.05472676996853831,-0.08195935648805253,0.08404118525694271
2020-07-01,0.05744421118418752,-0.02424020339752941,0.08968720303692179
2020-08-01,0.138786765947122,0.03941164583791745,0.07574157430407968
2020-09-01,0.1950174997419611,0.0554987034666381,0.07169441064125448
2020-10-01,0.1253956580995601,0.003064574257914066,0.0673195409049514
2020-11-01,0.05900115081131618,-0.0277834928951386,0.06182135831775004
2020-12-01,0.1410424859579724,0.05099941636699468,0.07550988012003579
2021-01-01,0.183794182843112,0.1501397808570364,0.05624175166574896
2021-02-01,0.2724660476988319,0.2361386092829718,0.02996440169866488
2021-03-01,0.4944638491664213,0.4868702213449394,0.02872081647499902
2021-04-01,0.3862768524113727,0.416450613898578,-0.01163264625422644
2021-05-01,0.3932444013524148,0.3879206618683946,-0.009695156769090607
2021-06-01,0.3779551091506017,0.3719051182815629,-0.0147841668588109
2021-07-01,0.330502628906548,0.3137140846106077,-0.0201874536543637
2021-08-01,0.2740584543021443,0.2404118950524179,0.000684597058362213
2021-09-01,0.3630104764197064,0.2809435696775411,-0.0002249185925439212
2021-10-01,0.3327161845025337,0.2641405491974795,-0.004821933260640399
2021-11-01,0.2863040711988216,0.1533486597010518,-0.01606238349618339
2021-12-01,0.230385172354584,0.0442166974969187,-0.01555567439674288
2022-01-01,0.3005408752328955,0.07858867549466853,-0.01007964379526116
2022-02-01,0.1986204858664966,0.03123858580105554,-0.01528054061872097
2022-03-01,0.1127239456511819,-0.0174434023968012,-0.01394974078805933
2022-04-01,0.09653345975467853,-0.04676749639957312,-0.04932023078058145
2022-05-01,-0.006233483732401957,-0.1358582516019272,-0.08849027531807596
2022-06-01,-0.02583819069828108,-0.1174991911655746,-0.08910232536954321
2022-07-01,-0.1274685274062017,-0.1733645073689725,-0.114587160059066
2022-08-01,-0.07465760856286807,-0.1581991815178395,-0.09177871219067679
2022-09-01,-0.0690248559611214,-0.1673336701838786,-0.1081464690420161
2022-10-01,-0.2104847173409211,-0.267958877315613,-0.1460530861224771
2022-11-01,-0.1394017758013413,-0.2090695622672749,-0.1576587551557272
2022-12-01,-0.1317160381272209,-0.1368671758315706,-0.1240608632444498
2023-01-01,-0.1361955905312165,-0.1350447845646155,-0.1128020147551044
2023-02-01,-0.05394858776791733,-0.03015715736475755,-0.07285893277828026
2023-03-01,-0.1111470739691547,-0.0681184749580569,-0.07203748585675396
2023-04-01,0.01050030968222138,0.02474832827986373,-0.007790511400732836
2023-05-01,0.02433076686012181,0.02731972416367201,-0.0101699630025589
2023-06-01,0.1215419814304828,0.07455987457976199,-0.005153993268519619
2023-07-01,0.09351848441859523,0.08652548369810309,-0.03047238037841182
2023-08-01,0.1773512023186463,0.1792919132837649,-0.003752064069977301
2023-09-01,0.2761957473060652,0.2482780836189933,0.03287358472282031
2023-10-01,0.1242834535984469,0.1664781483900111,0.01906388513634893
2023-11-01,0.0419530685038656,-0.002042811095378849,-0.03191883542679042
2023-12-01,0.2066670827366546,0.1042573543162337,0.02027031867844209
2024-01-01,0.1871040843335634,0.06575080199638683,0.02266377686583931
2024-02-01,0.2371148202242761,0.09616618761749773,0.04896020171630711
2024-03-01,0.2551382011981485,0.09964605208069699,0.007699130027450485
